Flag for U.S.A. Weather past 2 weeks in Olathe, Kansas, U.S.A.

Now
82 °F

Sunny.


Feels Like: 82 °F
Forecast: 62 / 82 °F
Wind: 14 mph from South

Location: Johnson County Executive Airport

Current Time: Sep 30, 2014 at 2:16:05 PM

Latest Report: Sep 30, 2014 at 12:53 PM


Visibility: 10 mi

Pressure: 29.85 "Hg

Humidity: 48%

Dew point: 60 °F

Location of OlatheLocation

Historic Weather in Olathe — Graph

°F

Olathe temperature yesterday

Maximum temperature yesterday: 83 °F (at 3:53 PM)
Minimum temperature yesterday: 59 °F (at 4:53 AM)
Average temperature yesterday: 71 °F

Past Weeks' High & Low Weather Summary

 TemperatureHumidityPressure
High83 °F (Sep 20, 1:53 PM)100% (Sep 17, 6:02 AM)30.31 "Hg (Sep 17, 6:02 AM)
Low48 °F (Sep 16, 5:53 AM)34% (Sep 21, 12:53 PM)29.85 "Hg (Sep 30, 12:53 PM)
Average67 °F75%30.07 "Hg
* Reported Sep 15 12:53 PM — Sep 30 12:53 PM, Olathe, Weather by CustomWeather, © 2014

Note: Actual official high and low records may vary slightly from our data, if they occured in-between our weather recording intervals... More about our weather records

Advertising

Olathe weather history for previous 24 hours

 ConditionsComfort  
Time TempWeatherWind HumidityBarometerVisibility
12:53 PM
Sep 30
82 °FSunny.14 mph48%29.85 "Hg10 mi
11:53 AM79 °FSunny.12 mph52%29.88 "Hg10 mi
10:53 AM76 °FSunny.10 mph60%29.89 "Hg10 mi
9:53 AM71 °FSunny.6 mph73%29.90 "Hg10 mi
8:53 AM65 °FSunny.6 mph85%29.90 "Hg10 mi
7:53 AM61 °FClear.5 mph90%29.90 "Hg10 mi
6:53 AM61 °FClear.5 mph90%29.90 "Hg10 mi
5:53 AM63 °FClear.5 mph84%29.89 "Hg10 mi
4:53 AM63 °FClear.5 mph84%29.90 "Hg10 mi
3:53 AM63 °FClear.5 mph84%29.91 "Hg10 mi
2:53 AM64 °FClear.3 mph87%29.93 "Hg10 mi
1:53 AM66 °FClear.3 mph78%29.93 "Hg10 mi
12:53 AM67 °FClear.No wind79%29.93 "Hg10 mi
11:53 PM
Sep 29
67 °FClear.3 mph79%29.93 "Hg10 mi
10:53 PM68 °FClear.3 mph76%29.93 "Hg10 mi
9:53 PM70 °FClear.5 mph68%29.93 "Hg10 mi
8:53 PM70 °FClear.3 mph73%29.93 "Hg10 mi
7:53 PM75 °FSunny.5 mph58%29.93 "Hg10 mi
6:53 PM78 °FSunny.3 mph52%29.93 "Hg10 mi
5:53 PM80 °FSunny.7 mph51%29.94 "Hg10 mi
4:53 PM81 °FSunny.8 mph47%29.94 "Hg10 mi
3:53 PM83 °FSunny.3 mph41%29.96 "Hg10 mi
2:53 PM82 °FPassing clouds.3 mph46%29.98 "Hg10 mi
Weather by CustomWeather, © 2014

See weather overviewHow to use our weather pages